GW4676 Weather Reports


time (UTC)temp
C
wind
direction
speed
KPH
gust
KPH
rain 1hr
cm
rain 24hr
cm
rain mn
cm
humidity
%
barometer
mb
20260507211543 13 251 4.8 17.7 0.00 0.08 0.00 42 1008.4
20260507210044 13 269 9.7 20.9 0.00 0.08 0.00 43 1008.3
20260507204552 13 294 3.2 25.7 0.00 0.10 0.00 46 1008.3
20260507203046 14 279 6.4 12.9 0.00 0.10 0.00 43 1008.2
20260507201549 13 299 8.0 17.7 0.00 0.10 0.00 43 1008.2
20260507200039 13 310 3.2 14.5 0.00 0.10 0.00 46 1008.5
20260507194547 13 284 6.4 17.7 0.00 0.15 0.00 45 1008.5
20260507193052 13 269 11.3 25.7 0.00 0.15 0.00 39 1008.7
20260507191542 12 252 8.0 20.9 0.00 0.15 0.00 45 1008.7
20260507190043 12 267 8.0 22.5 0.00 0.15 0.00 44 1009.1
20260507184540 12 305 9.7 25.7 0.00 0.18 0.00 47 1009.2
20260507183043 12 287 4.8 19.3 0.00 0.18 0.00 47 1009.2
20260507181546 12 269 8.0 19.3 0.00 0.18 0.00 45 1009.4
20260507180048 12 294 8.0 27.4 0.00 0.18 0.00 43 1009.3
20260507174550 13 252 6.4 20.9 0.00 0.23 0.00 43 1009.5
20260507173051 13 235 8.0 19.3 0.00 0.23 0.00 47 1009.7
20260507171601 12 281 3.2 9.7 0.00 0.23 0.00 47 1010.0
20260507170051 12 277 4.8 17.7 0.00 0.23 0.00 45 1010.0
20260507164545 12 278 16.1 25.7 0.00 0.28 0.00 45 1010.1
20260507163044 12 221 8.0 12.9 0.00 0.28 0.00 52 1010.4
20260507161550 11 209 12.9 19.3 0.00 0.28 0.00 49 1010.6
20260507160045 11 342 6.4 16.1 0.00 0.28 0.00 50 1010.7
20260507154547 10 286 6.4 17.7 0.00 0.33 0.00 53 1010.8
20260507153045 10 298 4.8 17.7 0.00 0.33 0.00 50 1010.9
20260507151546 11 295 6.4 14.5 0.00 0.33 0.00 53 1011.0
20260507150044 10 261 9.7 22.5 0.00 0.33 0.00 54 1011.3
20260507144557 10 221 9.7 19.3 0.00 0.38 0.00 53 1011.5
20260507143045 10 323 6.4 16.1 0.00 0.38 0.00 58 1011.5
20260507141557 10 240 6.4 14.5 0.00 0.38 0.00 59 1011.9
20260507140041 9 313 4.8 11.3 0.00 0.38 0.00 61 1012.0
20260507134544 8 194 3.2 12.9 0.00 0.46 0.00 69 1012.1
20260507133039 8 200 4.8 9.7 0.00 0.46 0.00 70 1012.2
20260507131536 7 207 1.6 11.3 0.00 0.46 0.00 73 1012.2
20260507130046 6 180 1.6 8.0 0.00 0.46 0.00 76 1012.2
20260507124556 6 198 4.8 8.0 0.00 0.51 0.00 76 1012.2
20260507123051 5 233 4.8 6.4 0.00 0.51 0.00 80 1012.2
20260507121549 5 173 1.6 4.8 0.00 0.51 0.00 85 1012.2
20260507120048 4 180 1.6 3.2 0.00 0.51 0.00 87 1012.1
20260507114550 3 0 0.0 0.0 0.00 0.58 0.00 85 1012.2
20260507113044 3 0 0.0 0.0 0.00 0.58 0.00 84 1012.0
20260507111551 3 0 0.0 0.0 0.00 0.58 0.00 83 1012.0
20260507110053 3 0 0.0 0.0 0.00 0.58 0.00 83 1011.9
20260507104547 3 0 0.0 0.0 0.00 0.69 0.00 83 1011.7
20260507103046 2 0 0.0 0.0 0.00 0.69 0.00 87 1011.7
20260507101547 2 0 0.0 0.0 0.00 0.69 0.00 88 1011.6
20260507100045 2 0 0.0 0.0 0.00 0.69 0.00 85 1011.6
20260507094550 2 0 0.0 0.0 0.00 0.76 0.00 82 1011.5
20260507093043 3 0 0.0 0.0 0.00 0.76 0.00 77 1011.6
20260507091540 3 0 0.0 0.0 0.00 0.76 0.00 77 1011.6
20260507090046 3 0 0.0 0.0 0.00 0.76 0.00 78 1011.7
20260507084545 3 0 0.0 0.0 0.00 0.81 0.00 77 1011.7
20260507083041 3 0 0.0 0.0 0.00 0.81 0.00 77 1011.6
20260507081539 3 0 0.0 0.0 0.00 0.81 0.00 77 1011.8
20260507080040 3 0 0.0 0.0 0.00 0.81 0.00 76 1011.7
20260507074544 4 0 0.0 0.0 0.00 0.91 0.00 76 1011.7
20260507073043 4 0 0.0 0.0 0.00 0.91 0.00 76 1011.8
20260507071540 4 0 0.0 0.0 0.00 0.91 0.00 75 1011.7
20260507070046 4 0 0.0 0.0 0.00 0.91 0.00 76 1011.9
20260507064544 4 0 0.0 0.0 0.00 1.07 0.00 77 1011.8
20260507063050 5 0 0.0 0.0 0.00 1.07 0.00 76 1012.1
20260507061542 5 0 0.0 0.0 0.00 1.07 0.00 76 1011.9
20260507060056 5 0 0.0 0.0 0.00 1.07 0.00 73 1012.0
20260507054546 5 0 0.0 0.0 0.00 1.17 0.00 73 1012.2
20260507053041 5 0 1.6 3.2 0.00 1.17 0.00 71 1012.5
20260507051545 5 0 0.0 1.6 0.00 1.17 0.00 73 1012.6
20260507050044 6 290 1.6 4.8 0.00 1.17 0.00 72 1012.6
20260507044557 6 0 0.0 8.0 0.00 1.17 0.00 72 1012.7
20260507043047 6 300 1.6 4.8 0.00 1.17 0.00 72 1012.5
20260507041548 6 281 1.6 4.8 0.00 1.17 0.00 72 1012.7
20260507040048 6 303 1.6 3.2 0.00 1.17 0.00 72 1012.7
20260507034543 6 302 0.0 3.2 0.00 1.17 1.17 72 1012.4
20260507033040 6 298 1.6 4.8 0.00 1.17 1.17 72 1012.3
20260507031547 6 0 0.0 0.0 0.00 1.17 1.17 71 1012.3
20260507030035 6 0 0.0 0.0 0.00 1.17 1.17 72 1012.1
20260507024552 6 0 0.0 0.0 0.00 1.17 1.17 70 1012.1
20260507023044 6 0 0.0 0.0 0.00 1.17 1.17 67 1012.1
20260507021540 7 0 0.0 0.0 0.03 1.17 1.17 66 1011.9
20260507020050 7 0 0.0 0.0 0.03 1.17 1.17 65 1011.7
20260507014537 7 0 0.0 0.0 0.03 1.17 1.17 63 1011.6
20260507013040 7 0 0.0 0.0 0.00 1.14 1.14 63 1011.8
20260507011544 7 0 0.0 0.0 0.00 1.14 1.14 64 1012.1
20260507010044 7 0 0.0 6.4 0.00 1.14 1.14 64 1012.2
20260507004539 8 313 3.2 8.0 0.00 1.14 1.14 63 1012.0
20260507003037 8 315 3.2 8.0 0.00 1.14 1.14 65 1011.9
20260507001541 8 282 3.2 8.0 0.03 1.14 1.14 65 1011.9
20260507000038 8 291 4.8 12.9 0.03 1.14 1.14 63 1011.9
20260506234542 8 284 3.2 12.9 0.03 1.14 1.14 63 1011.4
20260506233039 9 301 4.8 12.9 0.03 1.14 1.14 63 1011.4
20260506231535 9 273 3.2 11.3 0.00 1.12 1.12 62 1011.0
20260506230040 10 281 4.8 16.1 0.00 1.12 1.12 62 1010.7
20260506224556 10 309 3.2 12.9 0.03 1.12 1.12 67 1010.6
20260506223041 10 333 3.2 11.3 0.03 1.12 1.12 72 1010.5
20260506221540 10 294 3.2 12.9 0.03 1.12 1.12 72 1010.2
20260506220040 10 279 4.8 8.0 0.00 1.09 1.09 71 1010.1
20260506214605 10 315 4.8 12.9 0.03 1.09 1.09 72 1010.0
20260506213045 10 302 4.8 14.5 0.03 1.09 1.09 73 1009.9